Location: Bouchavesnes-Bergen
(49.9859°N, 2.9203°E)
Time: 23:57:27
(UTC+00:00)

Cosmos 2219 Rocket - Pass Details

Date: 09 March 2021
Orbit: 826 x 848 km, 71.0° (Epoch: 13 April)

Event Time Altitude Azimuth Distance (km) Brightness Sun altitude
Rises 04:34:48 0° 327° (NNW) 3,406 5.2 -16.8°
Reaches altitude 10° 04:37:19 10° 322° (NW) 2,471 4.4 -16.4°
Maximum altitude 04:42:42 47° 250° (WSW) 1,115 2.4 -15.6°
Drops below altitude 10° 04:48:05 10° 178° (S) 2,464 4.5 -14.7°
Sets 04:50:36 0° 173° (S) 3,396 5.3 -14.3°
